Погода в Вахдате

Таджикистан     38°33′41″N   69°00′59″E
темп.,
°C
ветер,
м/с
пор.,
м/с
влажн.,
%
обл.,
%
осадки,
мм/ч
давл.,
гПа
погр.,
м
17 апреля, сб
сб1723:00+12св22520 0.0 101717
02:00+11всв33541 0.0 101621
05:00+10св22542 0.0 101716
08:00+15всв12503 0.0 1018147
11:00+20юз22387 0.0 10171306
14:00+22зюз233216 0.0 10152756
17:00+19ююз454799 0.0 1015478
20:00+13всв5869100 0.5 1017127
18 апреля, вс
вс1823:00+13всв2262100 0.7 101717
02:00+12всв2264100 0.1 101730
05:00+10вюв2282100 2.2 101824
08:00+12св477598 1.8 1021242
11:00+16юв344863 2.3 10211732
14:00+17юв334486 0.1 10202057
17:00+11с238895 1.6 1023104
20:00+10св478299 1.1 1023130
19 апреля, пн
пн1923:00+9св347652 1.1 102243
02:00+9св337171 0.0 102137
05:00+8всв34675 0.0 102138
08:00+13всв345813 0.0 1019200
11:00+19в23385 0.0 10161505
14:00+21ююв123354 0.0 10131957
17:00+21юз11385 0.0 1011786
20:00+14св22516 0.0 101215
20 апреля, вт
вт2023:00+12св224976 0.0 101315
02:00+11св225066 0.0 101215
05:00+10всв224757 0.0 101216
08:00+15всв114568 0.0 1013108
11:00+20юз223635 0.0 1011894
14:00+22зюз1231100 0.0 10092460
17:00+14сз5673100 0.8 1011237
20:00+11св4578100 1.8 101283
21 апреля, ср
ср2123:00+12всв4672100 1.9 101192
02:00+11св227299 0.1 101231
05:00+10в227996 0.3 101426
08:00+12в3371100 0.4 1015309
11:00+13всв226899 1.9 1015437
14:00+14ссз226890 5.3 1015444
17:00+11в45794 11.3 1015302
20:00+8в468883 1.3 1018120